Weather History for 78663 - May, 2013

Change the Weather History Date:

Sunday, May 19, 2013

  Actual Average Record
Temperature  
Mean Temperature 80 °F -  
Max Temperature 89 °F 86 °F - ()
Min Temperature 71 °F 67 °F - ()
Cooling Degree Days 15    
Growing Degree Days 30 (Base 50)    
Moisture  
Dew Point 73 °F    
Average Humidity 79    
Maximum Humidity 100    
Minimum Humidity 55    
Precipitation  
Precipitation 0.00 in 0.32 in - ()
Sea Level Pressure  
Sea Level Pressure 29.99 in    
Wind  
Wind Speed 3 mph ()    
Max Wind Speed 12 mph    
Max Gust Speed -    
Visibility 5.2 miles    
Events      
T = Trace of Precipitation, MM = Missing Value Source: Averaged Metar Reports

Daily Weather History Graph

Daily Weather History Graph

Search for Another Location

Airport or City:

Trip Planner

Search our weather history database for the weather conditions in past years. The results will help you decide how hot, cold, wet, or windy it might be!

Date:

Astronomy

May. 19, 2013 Rise Set
Actual Time 5:29 AM CST 6:16 PM CST
Civil Twilight 5:06 AM CST 6:39 PM CST
Nautical Twilight 4:39 AM CST 7:06 PM CST
Astronomical Twilight 4:12 AM CST 7:34 PM CST
Moon 1:14 PM CST (5/19) 12:54 AM CST (5/19)
Length of Visible Light 13h 33m
Length of Day
12h 47m
Waxing Gibbous, 66% of the Moon is Illuminated
May 19
Waxing Gibbous
May 24
Full
May 31
Last Quarter
Jun 8
New
Jun 16
First Quarter

Hourly Weather History & Observations

Time (CST) Temp. Heat Index Dew Point Humidity Pressure Visibility Wind Dir Wind Speed Gust Speed Precip Events Conditions
5:50 AM 71.6 °F - 71.6 °F 100% 30.01 in 3.7 mi Calm Calm - N/A   Partly Cloudy
6:50 AM 73.4 °F - 71.6 °F 94% 30.01 in 3.1 mi Calm Calm - N/A   Haze
7:50 AM 75.2 °F - 73.4 °F 94% 30.01 in 3.7 mi Calm Calm - N/A   Unknown
8:50 AM 78.8 °F - 73.4 °F 83% 30.04 in 3.7 mi North 2.3 mph - N/A   Partly Cloudy
9:50 AM 80.6 °F 85.4 °F 73.4 °F 79% 30.04 in 4.3 mi East 4.6 mph - N/A   Scattered Clouds
10:50 AM 84.2 °F 90.9 °F 73.4 °F 70% 30.01 in 4.3 mi East 6.9 mph - N/A   Mostly Cloudy
11:50 AM 87.8 °F 93.8 °F 71.6 °F 58% 30.01 in 5.0 mi South 5.8 mph - N/A   Scattered Clouds
12:50 PM 89.6 °F 96.2 °F 71.6 °F 55% 30.01 in 6.2 mi SSE 6.9 mph - N/A   Scattered Clouds
1:50 PM 87.8 °F 97.6 °F 75.2 °F 66% 29.98 in 6.2 mi South 11.5 mph - N/A   Mostly Cloudy
2:50 PM 86.0 °F 93.4 °F 73.4 °F 66% 29.98 in 6.2 mi South 11.5 mph - N/A   Scattered Clouds
3:50 PM 84.2 °F 90.9 °F 73.4 °F 70% 29.95 in 6.2 mi South 9.2 mph - N/A   Partly Cloudy
4:50 PM 84.2 °F 90.9 °F 73.4 °F 70% 29.95 in 5.0 mi South 9.2 mph - N/A   Unknown
5:50 PM 80.6 °F 85.4 °F 73.4 °F 79% 29.95 in - South 5.8 mph - N/A   Clear
6:50 PM 77.0 °F - 71.6 °F 83% 29.95 in - South 4.6 mph - N/A   Clear
7:50 PM 77.0 °F - 71.6 °F 83% 29.95 in - South 2.3 mph - N/A   Clear
8:50 PM 75.2 °F - 71.6 °F 89% 29.98 in 6.2 mi Calm Calm - N/A   Scattered Clouds
9:50 PM 75.2 °F - 71.6 °F 89% 29.98 in 6.2 mi Calm Calm - N/A   Scattered Clouds
10:50 PM 75.2 °F - 71.6 °F 89% 30.01 in 6.2 mi Calm Calm - N/A   Mostly Cloudy
11:50 PM 75.2 °F - 71.6 °F 89% 29.98 in 6.2 mi Calm Calm - N/A   Mostly Cloudy